Home   Weather   Tabriz   Past weeks

Flag for Iran Past Weather in Tabriz, Iran — Yesterday and Last 2 Weeks

Now
84 °F

Passing clouds.


Feels Like: 82 °F
Forecast: 67 / 92 °F
Wind: 9 mph from Northwest

Location: Tabriz Airport

Current Time: Aug 18, 2017 at 1:39:58 pm

Latest Report: Aug 18, 2017 at 1:00 pm


Visibility: 5 mi

Pressure: 30.04 "Hg (25.68 "Hg at 1388m altitude)

Humidity: 33%

Dew Point: 52 °F

Location of TabrizLocation

Past Weather in Tabriz — Graph

°F

Tabriz Temperature Yesterday

Maximum temperature yesterday: 90 °F (at 4:30 pm)
Minimum temperature yesterday: 63 °F (at 8:30 am)
Average temperature yesterday: 76 °F

High & Low Weather Summary for the Past Weeks

 TemperatureHumidityPressure
High100 °F (Aug 5, 4:30 pm)94% (Aug 16, 6:01 pm)30.18 "Hg (Aug 16, 6:01 pm)
Low63 °F (Aug 16, 6:01 pm)5% (Aug 14, 5:30 pm)29.80 "Hg (Aug 14, 6:00 pm)
Average84 °F27%30.00 "Hg
* Reported Aug 3 1:00 pm — Aug 18 12:30 pm, Tabriz. Weather by CustomWeather, © 2017

Note: Actual official high and low records may vary slightly from our data, if they occured in-between our weather recording intervals... More about our weather records

Advertising

Tabriz Weather History for the Previous 24 Hours

Scroll right to see more
 ConditionsComfort  
Time TempWeatherWind HumidityBarometerVisibility
12:30 pm
Fri, Aug 18
82 °FClear.7 mph37%30.04 "Hg5 mi
12:00 pm81 °FSunny.7 mph39%30.07 "Hg10 mi
11:30 am81 °FSunny.2 mph37%30.07 "Hg10 mi
11:00 am79 °FSunny.2 mph39%30.04 "Hg10 mi
10:30 am77 °FSunny.7 mph44%30.07 "Hg10 mi
10:00 am75 °FSunny.2 mph44%30.07 "Hg10 mi
9:30 am73 °FSunny.7 mph50%30.04 "Hg10 mi
9:00 am73 °FSunny.5 mph47%30.04 "Hg10 mi
8:30 am72 °FSunny.7 mph53%30.04 "Hg10 mi
8:00 am68 °FSunny.2 mph60%30.04 "Hg10 mi
7:30 am66 °FSunny.5 mph64%30.04 "Hg10 mi
7:00 am64 °FClear.5 mph68%30.01 "Hg10 mi
6:30 am64 °FClear.2 mph68%30.01 "Hg10 mi
6:00 am66 °FClear.5 mph64%29.98 "Hg10 mi
5:30 am72 °FClear.2 mph50%29.98 "Hg10 mi
5:00 am66 °FClear.No wind60%29.98 "Hg10 mi
4:30 am72 °FClear.No wind50%29.98 "Hg10 mi
4:00 am73 °FClear.7 mph47%29.98 "Hg10 mi
3:30 am73 °FClear.5 mph47%29.98 "Hg10 mi
3:00 am73 °FClear.7 mph47%29.98 "Hg10 mi
2:30 am73 °FClear.7 mph47%29.98 "Hg10 mi
2:00 am75 °FClear.9 mph44%29.98 "Hg10 mi
1:30 am73 °FClear.12 mph47%29.98 "Hg10 mi
1:00 am75 °FClear.18 mph44%29.98 "Hg10 mi
12:30 am75 °FClear.7 mph44%29.98 "Hg10 mi
12:00 am75 °FClear.14 mph44%29.98 "Hg10 mi
11:30 pm
Thu, Aug 17
77 °FPassing clouds.12 mph42%29.98 "HgN/A
11:00 pm77 °FPassing clouds.9 mph42%29.98 "HgN/A
10:30 pm77 °FPassing clouds.9 mph42%29.98 "HgN/A
10:00 pm79 °FPassing clouds.12 mph39%29.98 "HgN/A
9:30 pm79 °FPassing clouds.14 mph42%29.98 "HgN/A
9:00 pm79 °FPassing clouds.18 mph42%29.95 "HgN/A
8:30 pm81 °FPassing clouds.18 mph37%29.95 "HgN/A
8:00 pm82 °FPassing clouds.16 mph37%29.95 "HgN/A
7:30 pm84 °FPassing clouds.14 mph35%29.92 "HgN/A
7:00 pm86 °FPassing clouds.14 mph31%29.92 "HgN/A
6:30 pm88 °FPassing clouds.14 mph29%29.92 "HgN/A
6:00 pm90 °FPassing clouds.14 mph27%29.95 "HgN/A
5:30 pm90 °FScattered clouds.7 mph27%29.95 "HgN/A
5:00 pm90 °FScattered clouds.9 mph27%29.95 "HgN/A
4:30 pm90 °FScattered clouds.14 mph27%29.95 "HgN/A
4:00 pm88 °FPartly sunny.12 mph31%29.95 "HgN/A
3:30 pm88 °FPartly sunny.12 mph29%29.98 "HgN/A
3:00 pm86 °FPartly sunny.14 mph33%29.98 "HgN/A
2:30 pm84 °FPartly sunny.12 mph33%30.01 "HgN/A
2:00 pm84 °FPartly sunny.7 mph35%30.04 "HgN/A
1:30 pm82 °FPartly sunny.14 mph37%30.04 "HgN/A
1:00 pm81 °FPartly sunny.9 mph39%30.04 "HgN/A
Weather by CustomWeather, © 2017

See weather overviewHow to use our weather pages